Location: Aghk�ilisa
(40.0189°N, 45.0097°E)
Time: 13:30:58
(UTC+00:00)

Cosmos 1727 Rocket - Pass Details

Date: 21 October 2019
Orbit: 961 x 996 km, 82.9° (Epoch: 17 November)

Event Time Altitude Azimuth Distance (km) Brightness Sun altitude
Rises 15:27:44 0° 181° (S) 3,638 7.0 -15.1°
Reaches altitude 10° 15:30:14 10° 181° (S) 2,692 6.3 -15.6°
Maximum altitude 15:36:23 80° 95° (E) 981 3.9 -16.8°
Drops below altitude 10° 15:42:34 10° 10° (N) 2,704 6.2 -17.9°
Sets 15:45:04 0° 9° (N) 3,656 6.9 -18.4°
